Погода в Архангельском

Россия / Тульская область     53°15′50″N   37°42′00″E
темп.,
°C
ветер,
м/с
пор.,
м/с
влажн.,
%
обл.,
%
осадки,
мм/ч
давл.,
гПа
погр.,
м
2 марта, вт
вт200:00−2з7139485 0.0 1021529
03:00+1з7139392 0.0 1019639
06:00+1з81393100 0.0 1015751
09:00+1зсз71395100 0.0 1014695
12:00+1зсз71399100 0.4 1012684
15:00+1зсз712100100 0.5 1011672
18:000сз51097100 0.4 1010565
21:000сз51293100 0.7 1012577
3 марта, ср
ср300:00−2сз6129494 0.1 1013528
03:00−3сз6149193 0.2 1015597
06:00−4ссз7148797 0.1 1016634
09:00−6ссз6148761 0.1 1018595
12:00−3сз610830 0.0 1019937
15:00−1зсз510870 0.0 1018696
18:00−1зсз6118988 0.1 1017652
21:00−2з6118986 0.1 1017688
4 марта, чт
чт400:00−2з61290100 0.1 1015733
03:00−3зюз6129299 0.1 1013338
06:00−3зюз7159284 0.0 1011367
09:00−2зюз8178566 0.0 1009541
12:000зюз8158546 0.0 1006722
15:00+1зюз8159267 0.0 1004668
18:00+1зюз71592100 0.0 1001783
21:00+1з71498100 0.1 1000583
5 марта, пт
пт500:00+1з61295100 0.1 1001634
03:00−1сз51094100 0.5 1003585
06:00−5ссз379599 0.1 1005247
09:00−5сз369597 0.1 1008251
12:00−3сз349027 0.0 1010409
15:00−3зсз348561 0.0 1011672
18:00−5з238889 0.0 101229
21:00−7сз338861 0.0 101534
6 марта, сб
сб600:00−9ссз238974 0.0 101528
03:00−9ссз238988 0.0 101639
06:00−9ссз2289100 0.0 101624
09:00−9сз239050 0.0 101665
12:00−6сз238363 0.0 1017309
15:00−5сз248475 0.0 1016582
18:00−8з22880 0.0 101621
21:00−9юз33890 0.0 101734